Regional Weather Roundup
Issued by NWS

Home | Current Version | Previous Version | Graphics & Text | Print | Product List | Glossary Off
Versions: 1 2 3 4 5 6 7 8 9 10 11 12 13 14 15 16 17 18 19 20 21 22 23 24 25 26 27 28 29 30 31 32 33 34 35 36 37 38 39 40 41 42 43 44 45 46 47 48 49 50

000
ASUS43 KTOP 160808
RWRKS

WEATHER ROUNDUP FOR KANSAS
NATIONAL WEATHER SERVICE GOODLAND KS
200 AM CST MON JAN 16 2017

NOTE:  "FAIR" INDICATES FEW OR NO CLOUDS BELOW 12,000 FEET WITH NO
SIGNIFICANT WEATHER AND/OR OBSTRUCTIONS TO VISIBILITY.

KSZ001>006-013>018-027>032-041>047-160900-
NORTHWEST KANSAS

CITY           SKY/WX    TMP DP  RH WIND       PRES   REMARKS
GOODLAND       FRZ RAIN  30  29  96 N10       29.92F WCI  21
HAYS           FLURRIES  32  30  92 NE16      29.91F WCI  21
HILL CITY      FRZ RAIN  31  31 100 NE12      29.96F FOG     WCI  22
RUSSELL        MIX PCPN  31  30  96 NE16      29.91F FOG     WCI  20
$$

KSZ061>065-074>080-084>089-160900-
SOUTHWEST KANSAS

CITY           SKY/WX    TMP DP  RH WIND       PRES   REMARKS
DODGE CITY     FRZ RAIN  31  31 100 NE17      29.83F FOG     WCI  19
ELKHART          N/A     29  23  78 N8          N/A
GARDEN CITY    LGT SNOW  31  30  96 N14       29.85F FOG     WCI  21
GREAT BEND     MIX PCPN  32  31  96 NE12      29.90F FOG     WCI  23
LIBERAL        CLOUDY    34  28  80 CALM      29.86S
PRATT          MIX PCPN  30  29  98 NE5       29.84F
$$

KSZ066>073-081>083-090>101-160900-
SOUTHEAST KANSAS

CITY           SKY/WX    TMP DP  RH WIND       PRES   REMARKS
CHANUTE        LGT RAIN  42  41  96 NE9       29.94F FOG
HUTCHINSON     RAIN      33  32  96 NE9       29.89F
MEDICINE LODGE   N/A     33  31  92 NE8       29.83F
NEWTON         LGT SNOW  33  33 100 NE10      29.90F FOG     WCI  25
PARSONS        RAIN      46  45  96 VRB3      29.94S FOG
WICHITA INTL   RAIN      37  37 100 NE13      29.87F FOG     WCI  29
WICHITA JABRA  RAIN      36  36 100 NE9       29.88F FOG
WICHITA MCCONL RAIN      37  37  98 NE10      29.86F WCI  30
WINFIELD       RAIN      44  44 100 E16G23    29.86F FOG
$$

KSZ007>012-019>026-033>040-048>060-102>105-160900-
NORTHEAST KANSAS

CITY           SKY/WX    TMP DP  RH WIND       PRES   REMARKS
CONCORDIA      FRZ RAIN  31  31 100 NE9       29.99F FOG
EMPORIA        LGT RAIN  34  34 100 NE9       29.95F FOG
LAWRENCE       CLOUDY    33  33 100 NE10      30.03F FOG     WCI  25
MANHATTAN      LGT RAIN  33  32  96 NE8       30.00F
MARYSVILLE     DRIZZLE   32  32 100 NE5       30.02F
OLATHE IND     LGT RAIN  34  34 100 E9        30.01F FOG
OLATHE EXE     LGT RAIN  33  33 100 E8        30.01F FOG
SALINA           N/A    N/A N/A N/A MISG        N/A
TOPEKA BILLARD LGT RAIN  34  31  88 NE6       30.02F FOG
TOPEKA FORBES  CLOUDY    34  33  96 E7        30.00F FOG
$$



USA.gov is the U.S. government's official web portal to all federal, state and local government web resources and services.